User: anonymous   Login
Location: Croissy-Beaubourg
(48.8283°N, 2.6696°E)
Time: 09:49:30
(UTC+00:00)
Language:

FENGYUN 1C DEB - Orbit

View from above orbital plane
View from above orbital plane
View from above satellite
View from above satellite

Ground track
Ground track

The orbit data is extracted from the following two-line orbital elements,

1 31553U 99025BYU 22226.94947022  .00001583  00000-0  81615-3 0  9994
2 31553  99.0707 234.7191 0036158 346.9719  42.7329 14.16305297786253
Epoch (UTC): 14 August 2022 22:47:14
Eccentricity: 0.0036158
inclination: 99.0707°
perigee height: 812 km
apogee height: 864 km
right ascension of ascending node: 234.7191°
argument of perigee: 346.9719°
revolutions per day: 14.16305297
mean anomaly at epoch: 42.7329°
orbit number at epoch: 78625

The dashed part of the orbit path shows where the satellite is in the earth's shadow,  

DLR